Location: Albany
(35.0170°S, 117.8920°E)
Time: 10:06:43
(UTC+08:00)

A-11 Canister half - Pass Details

Date: 30 January 2021
Orbit: 1524 x 1684 km, 47.3° (Epoch: 25 February)

Event Time Altitude Azimuth Distance (km) Brightness Sun altitude
Rises 05:45:25 0° 240° (WSW) 4,924 11.3 2.9°
Reaches altitude 10° 05:48:47 10° 235° (SW) 3,919 10.8 3.6°
Maximum altitude 05:58:30 52° 160° (SSE) 1,962 10.1 5.5°
Drops below altitude 10° 06:07:52 10° 85° (E) 3,784 12.6 7.3°
Sets 06:11:02 0° 79° (E) 4,744 12.9 7.9°
